Station YRSV2 - Taskinas Creek, Chesapeake Bay Reserve, VA Image indicating link to RSS feed of recent meteorological observations for station YRSV2


Conditions at YRSV2 as of
(12:30 am EDT)
0430 GMT on 06/14/2024:
     

Click on the graph icon in the table below to see a time series plot of the last five days of that observation.

5-day plot - Wind Speed Wind Speed (WSPD): 0.0 kts
5-day plot - Atmospheric Pressure Atmospheric Pressure (PRES):30.00 in
5-day plot - Air Temperature Air Temperature (ATMP): 72.9 °F
5-day plot - Dew Point Dew Point (DEWP): 64.2 °F
5-day plot -  Wind Speed, Wind Gust and Atmospheric Pressure Combined plot of Wind Speed, Gust, and Air Pressure
Previous observations
TIME
(EDT)
5-day plot - Wind Direction
WDIR
 
5-day plot - Wind Speed
WSPD
kts
5-day plot - Wind Gust
GST
kts
5-day plot - Wave Height
WVHT
ft
5-day plot - Dominant Wave Period
DPD
sec
5-day plot - Average Wave Period
APD
sec
5-day plot - Mean Wave Direction
MWD
 
5-day plot - Atmospheric Pressure
PRES
in
5-day plot - Pressure Tendency
PTDY
in
5-day plot - Air Temperature
ATMP
°F
5-day plot - Water Temperature
WTMP
°F
5-day plot - Dew Point
DEWP
°F
5-day plot - Salinity
SAL
psu
5-day plot - Visibility
VIS
nmi
5-day plot - Tide (above MLLW)
TIDE
ft
2024-06-14 12:15 am- 0.0-----30.00- 72.7- 64.4---
2024-06-14 12:00 am- 0.0-----30.00+0.03 73.2- 64.2---
2024-06-13 11:45 pm- 0.0-----30.00- 73.6- 64.2---
2024-06-13 11:30 pm- 0.0-----30.00- 74.1- 64.4---
2024-06-13 11:15 pm- 0.0-----30.00- 74.3- 64.0---
2024-06-13 11:00 pm- 0.0-----30.00+0.00 73.9- 64.6---
2024-06-13 10:45 pm- 0.0-----30.00- 73.8- 65.1---
2024-06-13 10:30 pm- 0.0-----30.00- 74.1- 65.1---
2024-06-13 10:15 pm- 0.0-----30.00- 74.5- 64.8---
2024-06-13 10:00 pm- 0.0-----30.00+0.00 74.5- 64.8---
2024-06-13 09:45 pm- 0.0-----30.00- 73.9- 64.6---
2024-06-13 09:30 pm- 0.0-----30.00- 74.3- 64.6---
2024-06-13 09:15 pm- 0.0-----29.97- 75.2- 64.2---
2024-06-13 09:00 pm- 0.0-----29.97+0.00 75.9- 64.4---
2024-06-13 08:45 pm- 0.0-----29.97- 77.0- 64.6---
2024-06-13 08:30 pm- 0.0-----29.97- 78.1- 65.7---
2024-06-13 08:15 pm- 0.0-----30.00- 79.7- 65.5---
2024-06-13 08:00 pm- 0.0-----30.00+0.00 81.3- 64.9---
2024-06-13 07:45 pm- 0.0-----30.00- 83.1- 65.1---
2024-06-13 07:30 pm- 0.0-----30.00- 83.8- 65.8---
2024-06-13 07:15 pm- 0.0-----30.00- 84.6- 65.5---
2024-06-13 07:00 pm- 0.0-----30.00+0.00 85.6- 66.6---
2024-06-13 06:45 pm- 0.0-----30.00- 86.4- 66.6---
2024-06-13 06:30 pmESE 1.0-----29.97- 86.5- 66.2---
2024-06-13 06:15 pm SE 1.0-----29.97- 85.6- 65.8---
2024-06-13 06:00 pm SE 1.0-----29.97-0.03 85.5- 65.8---
2024-06-13 05:45 pm SE 1.0-----29.97- 85.1- 66.0---
2024-06-13 05:30 pm SE 1.0-----29.97- 86.7- 66.4---
2024-06-13 05:15 pmESE 1.0-----29.97- 87.8- 66.7---
2024-06-13 05:00 pm SE 1.9-----30.00-0.03 87.8- 66.2---
2024-06-13 04:45 pm SE 1.9-----30.00- 87.8- 65.7---
2024-06-13 04:30 pm SE 1.9-----30.00- 87.8- 66.7---
2024-06-13 04:15 pm SE 1.9-----30.00- 88.5- 66.9---
2024-06-13 04:00 pm SE 1.0-----30.00-0.03 86.9- 66.6---
2024-06-13 03:45 pmESE 1.9-----30.00- 88.2- 67.6---
2024-06-13 03:30 pm SE 1.0-----30.00- 86.5- 67.8---
2024-06-13 03:15 pm SE 1.0-----30.00- 86.2- 67.5---
2024-06-13 03:00 pmESE 1.0-----30.00-0.03 86.4- 68.2---
2024-06-13 02:45 pm- 0.0-----30.03- 84.4- 67.8---
2024-06-13 02:30 pm SE 1.0-----30.03- 85.5- 68.4---
2024-06-13 02:15 pm SE 1.9-----30.03- 86.7- 68.0---
2024-06-13 02:00 pm E 1.0-----30.03-0.03 85.1- 68.0---
2024-06-13 01:45 pmNNW 1.9-----30.03- 85.6- 68.5---
2024-06-13 01:30 pm NE 1.0-----30.03- 84.2- 66.7---
2024-06-13 01:15 pm- 0.0-----30.03- 84.6- 67.1---
2024-06-13 01:00 pmSSW 1.0-----30.03-0.03 84.7- 67.8---
2024-06-13 12:45 pmESE 1.0-----30.03- 84.7- 68.2---
2024-06-13 12:30 pm S 1.0-----30.03- 83.5- 68.0---
2024-06-13 12:15 pmSSE 1.0-----30.03- 84.2- 68.2---
2024-06-13 12:00 pm SW 2.9-----30.03-0.03 82.8- 67.3---
2024-06-13 11:45 am SW 1.9-----30.03- 83.3- 66.9---
2024-06-13 11:30 amESE 1.9-----30.06- 83.1- 67.3---
2024-06-13 11:15 am SW 2.9-----30.06- 81.7- 66.7---
2024-06-13 11:00 amSSW 1.9-----30.06+0.00 81.9- 67.5---
2024-06-13 10:45 amWSW 1.9-----30.06- 81.0- 68.0---
2024-06-13 10:30 amESE 1.0-----30.06- 81.0- 68.4---
2024-06-13 10:15 am S 1.9-----30.06- 79.5- 68.4---
2024-06-13 10:00 amSSW 1.0-----30.06+0.00 79.0- 68.5---
2024-06-13 09:45 am SE 1.0-----30.06- 77.9- 68.0---
2024-06-13 09:30 amSSW 1.0-----30.06- 77.0- 67.5---
2024-06-13 09:15 amSSW 1.0-----30.06- 76.1- 67.5---
2024-06-13 09:00 am SW 1.0-----30.06+0.03 76.3- 67.6---
2024-06-13 08:45 amSSW 1.9-----30.06- 76.3- 67.6---
2024-06-13 08:30 am- 0.0-----30.06- 75.2- 67.3---
2024-06-13 08:15 amESE 1.0-----30.06- 75.4- 66.7---
2024-06-13 08:00 am- 0.0-----30.06+0.06 74.3- 66.4---
2024-06-13 07:45 am- 0.0-----30.06- 72.7- 66.4---
2024-06-13 07:30 am- 0.0-----30.06- 70.2- 65.5---
2024-06-13 07:15 am- 0.0-----30.06- 67.6- 64.4---
2024-06-13 07:00 am- 0.0-----30.06+0.06 66.2- 63.5---
2024-06-13 06:45 am- 0.0-----30.06- 65.3- 63.0---
2024-06-13 06:30 am- 0.0-----30.06- 64.6- 62.2---
2024-06-13 06:15 am- 0.0-----30.03- 64.2- 62.2---
2024-06-13 06:00 am- 0.0-----30.03+0.03 63.7- 61.9---
2024-06-13 05:45 am- 0.0-----30.03- 64.0- 62.1---
2024-06-13 05:30 am- 0.0-----30.03- 64.2- 61.9---
2024-06-13 05:15 am- 0.0-----30.03- 64.2- 61.9---
2024-06-13 05:00 am- 0.0-----30.00-0.03 64.4- 62.1---
2024-06-13 04:45 am- 0.0-----30.00- 64.6- 62.2---
2024-06-13 04:30 am- 0.0-----30.00- 64.8- 62.1---
2024-06-13 04:15 am- 0.0-----30.00- 65.1- 61.9---
2024-06-13 04:00 am- 0.0-----30.00-0.03 65.5- 61.9---
2024-06-13 03:45 am- 0.0-----30.00- 65.7- 61.7---
2024-06-13 03:30 am- 0.0-----30.00- 65.7- 61.7---
2024-06-13 03:15 am- 0.0-----30.00- 64.9- 61.7---
2024-06-13 03:00 am- 0.0-----30.00-0.03 64.2- 61.3---
2024-06-13 02:45 am- 0.0-----30.03- 64.0- 61.3---
2024-06-13 02:30 amWSW 1.0-----30.03- 64.2- 61.5---
2024-06-13 02:15 am- 0.0-----30.03- 64.4- 61.5---
2024-06-13 02:00 am- 0.0-----30.03+0.00 64.8- 61.5---
2024-06-13 01:45 am- 0.0-----30.03- 64.9- 61.7---
2024-06-13 01:30 am- 0.0-----30.03- 64.8- 61.9---
2024-06-13 01:15 am- 0.0-----30.03- 64.8- 62.1---
2024-06-13 01:00 am- 0.0-----30.03+0.00 65.3- 62.4---